Location: Winthrop
(48.4780°N, 120.1850°W)
Time: 01:56:34
(UTC-07:00)

Transit 2A - Pass Details

Date: 21 June 2024
Orbit: 591 x 960 km, 66.7° (Epoch: 23 July)

Event Time Altitude Azimuth Distance (km) Brightness Sun altitude
Rises 02:33:03 0° 314° (NW) 3,555 9.8 -15.3°
Reaches altitude 10° 02:36:10 10° 299° (WNW) 2,649 8.9 -15.1°
Maximum altitude 02:40:33 20° 254° (WSW) 2,031 7.8 -14.8°
Enters shadow 02:42:36 17° 230° (SW) 2,192 7.8 -14.7°
